This is the latest recevied weather packets stored in our database for station/object N1YZ. If no packets are shown the sender has not sent any weather packets the latest 10 day(s).
| Time | Temp. | Humidity | Pressure | Rain* | Wind** | Luminosity | Snow |
|---|---|---|---|---|---|---|---|
| 1788213371 | 32.22° C | 63% | 1036.8 hPa | 0 mm | - | 51 W/m² | - |
| 1788213066 | 32.22° C | 63% | 1037 hPa | 0 mm | - | 60 W/m² | - |
| 1788212763 | 32.78° C | 61% | 1037 hPa | 0 mm | - | 56 W/m² | - |
| 1788212459 | 32.22° C | 62% | 1037.2 hPa | 0 mm | - | 86 W/m² | - |
| 1788212157 | 32.78° C | 60% | 1037.1 hPa | 0 mm | - | 54 W/m² | - |
| 1788211852 | 32.78° C | 61% | 1037 hPa | 0 mm | - | 56 W/m² | - |
| 1788211547 | 32.78° C | 61% | 1037.3 hPa | 0 mm | - | 50 W/m² | - |
| 1788211244 | 32.78° C | 60% | 1037.3 hPa | 0 mm | - | 55 W/m² | - |
| 1788210938 | 32.78° C | 62% | 1037.3 hPa | 0 mm | - | 64 W/m² | - |
| 1788210637 | 32.22° C | 61% | 1037.4 hPa | 0 mm | - | 53 W/m² | - |
| 1788210332 | 31.67° C | 62% | 1037.6 hPa | 0 mm | - | 56 W/m² | - |
| 1788210028 | 31.67° C | 62% | 1037.3 hPa | 0 mm | - | 55 W/m² | - |
| 1788209722 | 32.78° C | 63% | 1037.4 hPa | 0 mm | - | 63 W/m² | - |
| 1788209419 | 33.33° C | 62% | 1037.4 hPa | 0 mm | - | 74 W/m² | - |
| 1788209119 | 33.33° C | 61% | 1037.5 hPa | 0 mm | - | 78 W/m² | - |
| 1788208816 | 33.33° C | 58% | 1037.3 hPa | 0 mm | - | 60 W/m² | - |
| 1788208523 | 32.78° C | 59% | 1037.5 hPa | 0 mm | - | 87 W/m² | - |
| 1788208210 | 32.22° C | 62% | 1037.4 hPa | 0 mm | - | 63 W/m² | - |
| 1788207904 | 32.22° C | 63% | 1037.5 hPa | 0 mm | - | 74 W/m² | - |
| 1788207604 | 32.22° C | 62% | 1037.3 hPa | 0 mm | - | 80 W/m² | - |
| 1788207303 | 33.33° C | 60% | 1037.5 hPa | 0 mm | - | 72 W/m² | - |
| 1788206999 | 33.33° C | 60% | 1037.8 hPa | 0 mm | - | 101 W/m² | - |
| 1788206694 | 32.78° C | 58% | 1037.8 hPa | 0 mm | - | 109 W/m² | - |
| 1788206389 | 32.22° C | 58% | 1037.9 hPa | 0 mm | - | 169 W/m² | - |
| 1788206084 | 32.78° C | 60% | 1038.1 hPa | 0 mm | - | 58 W/m² | - |
* Rain latest hour (hover to see other rain measurements)
** Current wind speed in m/s (hover to see current wind gust speed)